MUOS-4

Last updated on Sun Jun 21 2026 00:03:06 GMT+0000 (Coordinated Universal Time)

1 40887U 15044A 26171.19299041 -.00000099 00000+0 00000+0 0 9990 2 40887 4.3362 42.2726 0057872 2.3796 8.2093 1.00271545 39599
UTC large
Height (km)
Speed (km/s)
/
Latitude / Longitude
Inclination (degrees)
Orbital Period (minutes)
Azimuth
Elevation
Range (km)
Doppler Factor

Next 0 passes for location: London (51.5072 / 0.1276)

No passes found over London.
MUOS-4